Regional Weather Roundup
Issued by NWS Bismarck, ND

Home | Current Version | Previous Version | Text Only | Print | Product List | Glossary On
Versions: 1 2 3 4 5 6 7 8 9 10 11 12 13 14 15 16 17 18 19 20 21 22 23 24 25 26 27 28 29 30 31 32 33 34 35 36 37 38 39 40 41 42 43 44 45 46 47 48 49 50
000
ASUS43 KBIS 281210
RWRBIS

NWR BROADCAST TEXT
NATIONAL WEATHER SERVICE BISMARCK ND
700 AM CDT THU MAY 28 2015

NOTE: "FAIR" INDICATES FEW OR NO CLOUDS BELOW 12,000 FEET WITH NO
SIGNIFICANT WEATHER AND/OR OBSTRUCTIONS TO VISIBILITY.


CITY           SKY/WX    TMP DP  RH WIND       PRES   REMARKS
WILLISTON      CLEAR     54  53  97 S3        29.88S
MINOT          CLOUDY    58  56  93 SE8       29.86F FOG
MINOT AFB      CLOUDY    58  58 100 SE10      29.86F
BISMARCK       CLOUDY    59  56  89 CALM      29.89S
DICKINSON      CLOUDY    52  51  97 CALM      29.89R
GARRISON         N/A     57  55  93 S6        29.87F
HETTINGER ARPT FOG       50  49  96 CALM      29.93R VSB 1/4
JAMESTOWN      CLOUDY    60  57  89 E6        29.91R
BEACH          FAIR      50  50 100 W6        29.93R
CARRINGTON     CLOUDY    57  57 100 SE10      29.91S
CROSBY         CLOUDY    55  55 100 CALM      29.89R FOG
HARVEY         FAIR      59  59 100 SE5       29.89S
HAZEN          PTSUNNY   54  54 100 S7        29.89F
LINTON         FAIR      57  57 100 SE9       29.88S
MANDAN         PTSUNNY   57  57 100 SW5       29.90S
OAKES            N/A     59  59 100 SE9       29.91S
STANLEY        CLOUDY    57  57 100 SW6       29.89F FOG
WATFORD CITY   PTSUNNY   50  50 100 SW6       29.88R FOG
$$

CITY           SKY/WX    TMP DP  RH WIND       PRES   REMARKS
GRAND FORKS    LGT RAIN  56  55  97 NE7       29.94F
GRAND FORKS AF LGT RAIN  55  53  94 E5        29.94S FOG
DEVILS LAKE    PTSUNNY   61  54  77 SE10      29.90S
FARGO          RAIN      61  58  90 MISG      29.96R FOG
CANDO          CLOUDY    55  54  94 E8        29.90F
CAVALIER       LGT RAIN  54  54 100 E6        29.95F
GRAFTON        DRIZZLE   55  55 100 E7        29.95F
LANGDON        CLOUDY    55  54  94 SE9       29.94S
ROLLA          CLOUDY    54  54 100 SE6       29.93F
WALHALLA         N/A     50  50 100 MISG      29.96S
$$

CITY           SKY/WX    TMP DP  RH WIND       PRES   REMARKS
ABERDEEN       CLOUDY    61  56  83 S10       29.91F
MOBRIDGE       MOCLDY    60  58  92 S5        29.86S
BUFFALO          N/A     56  53  90 NW5       29.86S
RAPID CITY     PTCLDY    53  51  93 CALM      29.92R
GLASGOW        PTCLDY    49  48  97 NW5       29.90R
SIDNEY         CLOUDY    52  48  87 CALM      29.90R VSB 1/4
WOLF POINT     MOCLDY    50  48  93 MISG      29.90R FOG
GLENDIVE       CLOUDY    48  46  93 SW5       29.92R VSB<1/4
MILES CITY     PTCLDY    51  51 100 W7        29.93R FOG
BAKER          PTCLDY    51  49  92 CALM      29.93S
$$

CITY           SKY/WX    TMP DP  RH WIND       PRES   REMARKS
BILLINGS       MOCLDY    51  45  79 SW10      30.00R
GREAT FALLS    MOCLDY    50  47  89 SW7       30.01R
REGINA         CLOUDY    57  54  88 SE8       29.93R
ESTEVAN        CLOUDY    57  55  94 E7        29.89S FOG
$$




USA.gov is the U.S. government's official web portal to all federal, state and local government web resources and services.